Chicopee, MA

6:42 AM EDT on April 23, 2018 (GMT -0400)
Westover Air Reserve Base / Metropolitan Airport

Weather History for KCEF - March, 2012

Change the Weather History Date:

Tuesday, March 6, 2012

  Actual Average Record
Temperature  
Mean Temperature 24 °F -  
Max Temperature 38 °F 39 °F 55 °F (2004)
Min Temperature 10 °F 22 °F -4 °F (2015)
Degree Days  
Heating Degree Days 41    
Moisture  
Dew Point 7 °F    
Average Humidity 48    
Maximum Humidity 80    
Minimum Humidity 23    
Precipitation  
Precipitation 0.00 in - - ()
Sea Level Pressure  
Sea Level Pressure 30.53 in    
Wind  
Wind Speed 3 mph (SW)    
Max Wind Speed 9 mph    
Max Gust Speed -    
Visibility 10 miles    
Events      
Averages and records for this station are not official NWS values.
T = Trace of Precipitation, MM = Missing Value Source: NWS Daily Summary

Daily Weather History Graph

Daily Weather History Graph

Search for Another Location

Airport or City:

Astronomy

Mar. 06, 2012 Rise Set
Actual Time 6:16 AM EST 5:46 PM EST
Civil Twilight 5:48 AM EST 6:14 PM EST
Nautical Twilight 5:16 AM EST 6:47 PM EST
Astronomical Twilight 4:43 AM EST 7:19 PM EST
Moon 4:08 PM EST (3/6) 4:52 AM EST (3/6)
Length of Visible Light 12h 26m
Length of Day
11h 30m
Waxing Gibbous, 96% of the Moon is Illuminated
Mar 6
Waxing Gibbous
Mar 8
Full
Mar 14
Last Quarter
Mar 22
New
Mar 30
First Quarter

Hourly Weather History & Observations

Time (EST) Temp. Windchill Dew Point Humidity Pressure Visibility Wind Dir Wind Speed Gust Speed Precip Events Conditions
12:55 AM 18.3 °F - 7.5 °F 63% 30.38 in 10.0 mi Calm Calm - N/A   Clear
1:55 AM 19.6 °F - 5.5 °F 55% 30.39 in 10.0 mi Calm Calm - N/A   Clear
2:55 AM 16.9 °F 8.5 °F 5.4 °F 61% 30.40 in 10.0 mi North 5.8 mph - N/A   Clear
3:55 AM 18.0 °F 12.7 °F 4.8 °F 57% 30.44 in 10.0 mi North 3.5 mph - N/A   Clear
4:55 AM 15.1 °F 9.4 °F 4.5 °F 63% 30.47 in 10.0 mi North 3.5 mph - N/A   Clear
5:55 AM 14.2 °F - 4.8 °F 66% 30.51 in 10.0 mi Calm Calm - N/A   Clear
6:55 AM 10.0 °F - 5.0 °F 80% 30.53 in 10.0 mi Calm Calm - N/A   Clear
7:55 AM 17.2 °F - 5.9 °F 61% 30.56 in 10.0 mi Calm Calm - N/A   Clear
8:55 AM 22.1 °F 15.9 °F 4.3 °F 46% 30.58 in 10.0 mi WNW 4.6 mph - N/A   Clear
9:55 AM 24.6 °F - 1.6 °F 37% 30.59 in 10.0 mi Calm Calm - N/A   Clear
10:55 AM 26.2 °F - 0.3 °F 33% 30.60 in 10.0 mi Calm Calm - N/A   Clear
11:55 AM 30.7 °F 27.3 °F 1.0 °F 28% 30.58 in 10.0 mi Variable 3.5 mph - N/A   Clear
12:55 PM 34.3 °F 29.2 °F 3.6 °F 27% 30.56 in 10.0 mi SSE 5.8 mph - N/A   Clear
1:55 PM 36.5 °F 32.7 °F 1.4 °F 23% 30.53 in 10.0 mi Variable 4.6 mph - N/A   Clear
2:55 PM 37.9 °F 35.5 °F 3.6 °F 24% 30.54 in 10.0 mi WSW 3.5 mph - N/A   Clear
3:55 PM 38.7 °F 32.9 °F 6.8 °F 27% 30.53 in 10.0 mi WSW 8.1 mph - N/A   Clear
4:55 PM 37.8 °F 31.8 °F 8.4 °F 30% 30.54 in 10.0 mi West 8.1 mph - N/A   Clear
5:55 PM 35.1 °F 30.1 °F 10.9 °F 37% 30.55 in 10.0 mi SW 5.8 mph - N/A   Clear
6:55 PM 31.3 °F - 9.0 °F 39% 30.56 in 10.0 mi Calm Calm - N/A   Clear
7:55 PM 26.8 °F - 16.2 °F 64% 30.56 in 10.0 mi Calm Calm - N/A   Clear
8:55 PM 28.4 °F 22.2 °F 11.8 °F 50% 30.57 in 10.0 mi SSE 5.8 mph - N/A   Clear
9:55 PM 28.8 °F 21.7 °F 12.7 °F 51% 30.58 in 10.0 mi SSE 6.9 mph - N/A   Clear
10:55 PM 30.2 °F 21.9 °F 17.1 °F 58% 30.57 in 10.0 mi South 9.2 mph - N/A   Clear
11:55 PM 31.8 °F 23.9 °F 22.5 °F 68% 30.56 in 10.0 mi South 9.2 mph - N/A   Mostly Cloudy